Regional Weather Roundup
Issued by NWS Bismarck, ND

Home | Current Version | Previous Version | Text Only | Print | Product List | Glossary On
Versions: 1 2 3 4 5 6 7 8 9 10 11 12 13 14 15 16 17 18 19 20 21 22 23 24 25 26 27 28 29 30 31 32 33 34 35 36 37 38 39 40 41 42 43 44 45 46 47 48 49 50
000
ASUS43 KBIS 180920
RWRBIS

NWR BROADCAST TEXT
NATIONAL WEATHER SERVICE BISMARCK ND
400 AM CDT FRI APR 18 2014

NOTE: "FAIR" INDICATES FEW OR NO CLOUDS BELOW 12,000 FEET WITH NO
SIGNIFICANT WEATHER AND/OR OBSTRUCTIONS TO VISIBILITY.


CITY           SKY/WX    TMP DP  RH WIND       PRES   REMARKS
WILLISTON      LGT RAIN  37  29  72 SE8       29.94F
MINOT          PTCLDY    31  21  66 E12       30.09F
MINOT AFB      CLEAR     30  23  75 SE16      30.09F WCI  19
BISMARCK       CLEAR     34  21  59 E14       30.09F
DICKINSON      CLOUDY    33  22  63 SE17      29.92F
GARRISON         N/A     34  23  64 SE14      30.06F
HETTINGER ARPT CLOUDY    33  23  66 E16       29.93F
JAMESTOWN      CLOUDY    32  21  64 E13       30.19F
CARRINGTON     CLOUDY    32  21  64 SE15      30.19S
CROSBY         FAIR      36  27  69 E16       29.97F
HARVEY         CLOUDY    32  23  69 SE17      30.15F
HAZEN          CLOUDY    34  21  60 E8G20     30.04F
LINTON         FAIR      32  23  69 SE18G26   30.06F
MANDAN         CLOUDY    32  21  64 E16G24    30.07F
OAKES          PTSUNNY   32  25  74 E8        30.21S
RUGBY          FAIR      30  19  64 SE17      30.16F WCI  18
STANLEY        CLOUDY    32  27  80 SE16      30.01F
TIOGA          CLOUDY    36  23  60 SE17G24   30.01F
WATFORD CITY   CLOUDY    36  23  60 SE20G25   29.91F
$$

CITY           SKY/WX    TMP DP  RH WIND       PRES   REMARKS
GRAND FORKS    MOCLDY    30  20  66 SE6       30.28S
GRAND FORKS AF MOCLDY    28  20  71 E2        30.28S
DEVILS LAKE    CLOUDY    32  16  51 SE14      30.21F
FARGO          CLOUDY    33  23  66 E5        30.27F
CANDO          CLOUDY    32  18  55 SE15      30.21F
CAVALIER       FAIR      27  19  74 E6        30.30S WCI  20
GRAFTON        FAIR      27  23  86 E6        30.29S WCI  20
GWINNER        CLOUDY    34  23  64 E8        30.24F
LANGDON        CLOUDY    28  16  59 SE14      30.23F WCI  17
ROLLA          CLOUDY    28  16  59 SE16      30.20F WCI  17
WALHALLA       FAIR      27  19  74 SE5       30.30S
$$

CITY           SKY/WX    TMP DP  RH WIND       PRES   REMARKS
ABERDEEN       CLOUDY    34  19  54 E13       30.18F
MOBRIDGE       CLOUDY    35  24  64 SE18      30.03F
BUFFALO          N/A     33  27  78 SE6       29.82F
RAPID CITY     CLEAR     35  32  88 SE3       29.86F
GLASGOW        CLOUDY    41  36  82 E18       29.75F
SIDNEY         CLOUDY    39  27  60 SE10      29.89F
WOLF POINT     CLOUDY    44  31  60 E12       29.82F
GLENDIVE       CLOUDY    39  30  70 E10       29.84F
MILES CITY     MOCLDY    46  35  65 SE16      29.76F
BAKER          MOCLDY    36  29  75 E17       29.84F
$$

CITY           SKY/WX    TMP DP  RH WIND       PRES   REMARKS
BILLINGS       PTCLDY    44  31  60 N5        29.67F
GREAT FALLS    LGT RAIN  44  43  96 W8        29.67R
REGINA         CLOUDY    34  23  64 SE21G29   29.94F
ESTEVAN        CLOUDY    32  25  74 E17       30.01F
$$




USA.gov is the U.S. government's official web portal to all federal, state and local government web resources and services.